Total_Precipitation_Accumulation
0.03 0.04 0.07 0.08 0.08 0.10 0.14 0.15 0.16 0.18 0.23 0.21 0.19 0.15 0.09 0.07 0.05 0.04 0.03 0.01 0.00 0.00
0.02 0.04 0.06 0.09 0.11 0.11 0.11 0.14 0.18 0.19 0.20 0.19 0.16 0.13 0.09 0.05 0.03 0.01 0.01 0.00 0.00 0.00
0.03 0.05 0.06 0.06 0.07 0.09 0.11 0.09 0.12 0.11 0.10 0.10 0.09 0.08 0.06 0.04 0.01 0.00 0.00 0.00 0.00 0.00
0.03 0.04 0.06 0.04 0.04 0.05 0.05 0.05 0.05 0.05 0.05 0.04 0.03 0.02 0.02 0.01 0.00 0.00 0.00 0.00 0.00 0.00
0.02 0.04 0.05 0.05 0.03 0.03 0.03 0.02 0.01 0.01 0.01 0.01 0.01 0.01 0.01 0.02 0.02 0.02 0.03 0.05 0.07 0.08
0.00 0.00 0.01 0.01 0.02 0.03 0.03 0.01 0.01 0.01 0.01 0.00 0.00 0.00 0.00 0.01 0.03 0.04 0.06 0.09 0.11 0.11
0.02 0.02 0.01 0.01 0.01 0.02 0.02 0.02 0.01 0.01 0.00 0.00 0.00 0.00 0.01 0.02 0.05 0.06 0.07 0.08 0.11 0.13
0.03 0.02 0.02 0.01 0.01 0.01 0.02 0.01 0.01 0.02 0.02 0.01 0.01 0.03 0.05 0.07 0.10 0.14 0.16 0.19 0.19 0.15
0.03 0.02 0.02 0.02 0.01 0.01 0.02 0.03 0.06 0.08 0.09 0.11 0.13 0.21 0.19 0.15 0.14 0.17 0.19 0.17 0.12 0.08
0.04 0.10 0.09 0.10 0.07 0.06 0.06 0.08 0.12 0.19 0.23 0.25 0.24 0.27 0.24 0.20 0.17 0.16 0.12 0.09 0.06 0.04
0.18 0.31 0.55 0.45 0.42 0.38 0.26 0.19 0.22 0.26 0.30 0.34 0.31 0.27 0.18 0.14 0.13 0.10 0.07 0.04 0.01 0.00
0.44 0.54 0.49 0.31 0.49 0.48 0.37 0.41 0.41 0.36 0.30 0.23 0.14 0.09 0.08 0.07 0.06 0.04 0.02 0.00 0.00 0.00
0.70 0.56 0.44 0.23 0.40 0.50 0.38 0.28 0.25 0.21 0.14 0.10 0.07 0.05 0.03 0.02 0.03 0.01 0.00 0.00 0.00 0.00
0.47 0.46 0.36 0.28 0.30 0.27 0.24 0.14 0.10 0.09 0.05 0.03 0.02 0.01 0.00 0.00 0.00 0.00 0.00 0.00 0.00 0.00